New Richmond, WI

3:29 AM CST on February 28, 2017 (GMT -0600)
New Richmond Municipal

Weather History for KRNH - April, 2013

Change the Weather History Date:

Friday, April 19, 2013

  Actual Average (KSTP) Record (KSTP)
Temperature  
Mean Temperature 30 °F -  
Max Temperature 33 °F 57 °F 66 °F (2007)
Min Temperature 24 °F 37 °F 28 °F (2013)
Degree Days  
Heating Degree Days 36    
Moisture  
Dew Point 25 °F    
Average Humidity 79    
Maximum Humidity 100    
Minimum Humidity 56    
Precipitation  
Precipitation 0.20 in - - ()
Sea Level Pressure  
Sea Level Pressure 29.64 in    
Wind  
Wind Speed 17 mph (NNW)    
Max Wind Speed 29 mph    
Max Gust Speed 34 mph    
Visibility 6 miles    
Events Snow    
Averages and records for this station are not official NWS values.
T = Trace of Precipitation, MM = Missing Value Source: NWS Daily Summary

Daily Weather History Graph

Daily Weather History Graph

Search for Another Location

Airport or City:

Trip Planner

Search our weather history database for the weather conditions in past years. The results will help you decide how hot, cold, wet, or windy it might be!

Date:

Astronomy

Apr. 19, 2013 Rise Set
Actual Time 6:17 AM CDT 8:01 PM CDT
Civil Twilight 5:46 AM CDT 8:32 PM CDT
Nautical Twilight 5:08 AM CDT 9:10 PM CDT
Astronomical Twilight 4:27 AM CDT 9:52 PM CDT
Moon 1:29 PM CDT (4/19) 2:50 AM CDT (4/19)
Length of Visible Light 14h 45m
Length of Day
13h 43m
First Quarter, 62% of the Moon is Illuminated
Apr 19
First Quarter
Apr 25
Full
May 2
Last Quarter
May 9
New
May 17
First Quarter

Hourly Weather History & Observations

Time (CDT) Temp. Windchill Dew Point Humidity Pressure Visibility Wind Dir Wind Speed Gust Speed Precip Events Conditions
12:15 AM 32.0 °F 20.8 °F 32.0 °F 100% 29.42 in 1.0 mi NNW 17.3 mph 24.2 mph N/A Snow Snow
12:35 AM 32.0 °F 20.5 °F 32.0 °F 100% 29.42 in 1.0 mi NNW 18.4 mph 25.3 mph N/A Snow Snow
12:55 AM 32.0 °F 21.6 °F 32.0 °F 100% 29.41 in 1.2 mi NW 15.0 mph - N/A Snow Light Snow
1:15 AM 32.0 °F 20.5 °F 32.0 °F 100% 29.41 in 1.8 mi NNW 18.4 mph 26.5 mph N/A Snow Light Snow
1:35 AM 32.0 °F 20.1 °F 32.0 °F 100% 29.41 in 1.8 mi NW 19.6 mph 24.2 mph N/A Snow Light Snow
1:55 AM 32.0 °F 20.1 °F 32.0 °F 100% 29.41 in 1.5 mi NNW 19.6 mph 27.6 mph N/A Snow Light Snow
2:15 AM 32.0 °F 20.5 °F 32.0 °F 100% 29.40 in 2.0 mi NW 18.4 mph 23.0 mph N/A Snow Light Snow
2:35 AM 32.0 °F 20.5 °F 30.2 °F 93% 29.41 in 2.5 mi NNW 18.4 mph 25.3 mph N/A Snow Light Snow
2:55 AM 32.0 °F 19.8 °F 30.2 °F 93% 29.41 in 2.5 mi NNW 20.7 mph 27.6 mph N/A Snow Light Snow
3:15 AM 32.0 °F 20.1 °F 30.2 °F 93% 29.41 in 3.0 mi NNW 19.6 mph 27.6 mph N/A Snow Light Snow
3:35 AM 32.0 °F 20.5 °F 30.2 °F 93% 29.42 in 5.0 mi NNW 18.4 mph 25.3 mph N/A Snow Light Snow
3:55 AM 32.0 °F 19.8 °F 30.2 °F 93% 29.42 in 4.0 mi NNW 20.7 mph 25.3 mph N/A Snow Light Snow
4:15 AM 30.2 °F 17.8 °F 30.2 °F 100% 29.43 in 2.5 mi NNW 19.6 mph 25.3 mph N/A Snow Light Snow
4:35 AM 30.2 °F 18.1 °F 30.2 °F 100% 29.43 in 3.0 mi NW 18.4 mph 25.3 mph N/A Snow Light Snow
4:55 AM 30.2 °F 18.5 °F 30.2 °F 100% 29.43 in 2.5 mi NW 17.3 mph - N/A Snow Light Snow
5:15 AM 30.2 °F 17.8 °F 30.2 °F 100% 29.44 in 2.5 mi NW 19.6 mph - N/A Snow Light Snow
5:55 AM 30.2 °F 18.9 °F 28.4 °F 93% 29.46 in 5.0 mi NNW 16.1 mph 28.8 mph N/A   Overcast
6:15 AM 30.2 °F 18.9 °F 28.4 °F 93% 29.47 in 5.0 mi NNW 16.1 mph 24.2 mph N/A Snow Light Snow
6:35 AM 30.2 °F 18.5 °F 28.4 °F 93% 29.48 in 2.5 mi NNW 17.3 mph 23.0 mph N/A Snow Light Snow
6:55 AM 30.2 °F 18.5 °F 28.4 °F 93% 29.49 in 10.0 mi NNW 17.3 mph 24.2 mph N/A Snow Light Snow
7:15 AM 30.2 °F 17.8 °F 26.6 °F 86% 29.49 in 7.0 mi NNW 19.6 mph 24.2 mph N/A Snow Light Snow
7:35 AM 30.2 °F 18.1 °F 28.4 °F 93% 29.50 in 5.0 mi NNW 18.4 mph - N/A Snow Light Snow
7:55 AM 30.2 °F 18.5 °F 26.6 °F 86% 29.50 in 5.0 mi NNW 17.3 mph 26.5 mph N/A Snow Light Snow
8:15 AM 30.2 °F 18.1 °F 26.6 °F 86% 29.51 in 3.0 mi NW 18.4 mph 23.0 mph N/A Snow Light Snow
8:35 AM 30.2 °F 17.4 °F 26.6 °F 86% 29.51 in 4.0 mi NNW 20.7 mph 29.9 mph N/A Snow Light Snow
8:55 AM 30.2 °F 19.3 °F 26.6 °F 86% 29.52 in 4.0 mi NW 15.0 mph 24.2 mph N/A Snow Light Snow
9:15 AM 30.2 °F 17.4 °F 26.6 °F 86% 29.53 in 3.0 mi NNW 20.7 mph 27.6 mph N/A Snow Light Snow
9:55 AM 30.2 °F 17.8 °F 26.6 °F 86% 29.54 in 2.5 mi NNW 19.6 mph 26.5 mph N/A Snow Light Snow
10:15 AM 30.2 °F 17.4 °F 26.6 °F 86% 29.55 in 1.5 mi NNW 20.7 mph 25.3 mph N/A Snow Light Snow
10:35 AM 30.2 °F 17.8 °F 26.6 °F 86% 29.57 in 1.8 mi NNW 19.6 mph 28.8 mph N/A Snow Light Snow
10:55 AM 30.2 °F 17.1 °F 23.0 °F 75% 29.58 in 2.5 mi NNW 21.9 mph 28.8 mph N/A Snow Light Snow
11:15 AM 30.2 °F 17.1 °F 23.0 °F 75% 29.58 in 2.5 mi NW 21.9 mph 27.6 mph N/A Snow Light Snow
11:35 AM 30.2 °F 18.9 °F 23.0 °F 75% 29.59 in 2.5 mi NW 16.1 mph 28.8 mph N/A Snow Light Snow
11:55 AM 32.0 °F 19.5 °F 23.0 °F 69% 29.60 in 7.0 mi NNW 21.9 mph 25.3 mph N/A   Overcast
12:15 PM 32.0 °F 19.5 °F 23.0 °F 69% 29.62 in 4.0 mi NNW 21.9 mph 27.6 mph 0.03 in   Haze
12:35 PM 32.0 °F 19.5 °F 24.8 °F 75% 29.61 in 4.0 mi WNW 21.9 mph 26.5 mph 0.04 in Snow Light Snow
12:55 PM 32.0 °F 19.8 °F 26.6 °F 80% 29.62 in 3.0 mi NW 20.7 mph 29.9 mph 0.05 in Snow Light Snow
1:15 PM 32.0 °F 20.1 °F 26.6 °F 80% 29.64 in 5.0 mi NW 19.6 mph 27.6 mph 0.02 in Snow Light Snow
1:35 PM 32.0 °F 19.2 °F 24.8 °F 75% 29.64 in 2.5 mi NNW 23.0 mph 33.4 mph 0.03 in Snow Light Snow
1:55 PM 32.0 °F 20.1 °F 24.8 °F 75% 29.65 in 5.0 mi NW 19.6 mph 28.8 mph 0.05 in   Haze
2:15 PM 32.0 °F 18.4 °F 26.6 °F 80% 29.66 in 2.5 mi NW 26.5 mph 32.2 mph N/A Snow Light Snow
2:35 PM 32.0 °F 20.1 °F 24.8 °F 75% 29.67 in 10.0 mi NW 19.6 mph 27.6 mph 0.02 in   Overcast
2:55 PM 33.8 °F 20.5 °F 23.0 °F 65% 29.68 in 10.0 mi NNW 27.6 mph 33.4 mph 0.04 in   Mostly Cloudy
3:15 PM 33.8 °F 20.3 °F 23.0 °F 65% 29.69 in 10.0 mi NNW 28.8 mph 34.5 mph 0.01 in   Mostly Cloudy
3:35 PM 33.8 °F 20.8 °F 23.0 °F 65% 29.69 in 10.0 mi WNW 26.5 mph 32.2 mph 0.02 in   Mostly Cloudy
3:55 PM 33.8 °F 22.5 °F 23.0 °F 65% 29.71 in 10.0 mi NNW 19.6 mph 34.5 mph 0.03 in   Mostly Cloudy
4:15 PM 33.8 °F 23.2 °F 23.0 °F 65% 29.73 in 10.0 mi NNW 17.3 mph 27.6 mph 0.01 in   Mostly Cloudy
4:35 PM 33.8 °F 21.6 °F 23.0 °F 65% 29.74 in 10.0 mi NNW 23.0 mph 32.2 mph 0.02 in   Mostly Cloudy
4:55 PM 33.8 °F 22.2 °F 23.0 °F 65% 29.75 in 10.0 mi NNW 20.7 mph 26.5 mph 0.02 in   Mostly Cloudy
5:15 PM 33.8 °F 21.6 °F 21.2 °F 60% 29.77 in 7.0 mi NNW 23.0 mph 34.5 mph N/A Snow Light Snow
5:35 PM 33.8 °F 21.0 °F 21.2 °F 60% 29.78 in 10.0 mi NNW 25.3 mph 33.4 mph N/A   Scattered Clouds
5:55 PM 33.8 °F 23.9 °F 23.0 °F 65% 29.79 in 10.0 mi NW 15.0 mph 19.6 mph 0.01 in   Mostly Cloudy
6:15 PM 33.8 °F 22.2 °F 19.4 °F 56% 29.80 in 10.0 mi North 20.7 mph 32.2 mph N/A   Mostly Cloudy
6:35 PM 33.8 °F 23.2 °F 19.4 °F 56% 29.81 in 10.0 mi NNW 17.3 mph 26.5 mph N/A   Scattered Clouds
6:55 PM 33.8 °F 24.8 °F 21.2 °F 60% 29.82 in 10.0 mi NNW 12.7 mph - N/A   Mostly Cloudy
7:15 PM 32.0 °F 23.6 °F 21.2 °F 64% 29.83 in 10.0 mi NNW 10.4 mph - N/A   Mostly Cloudy
7:35 PM 32.0 °F 23.6 °F 21.2 °F 64% 29.85 in 10.0 mi NNW 10.4 mph - N/A   Scattered Clouds
7:55 PM 32.0 °F 25.6 °F 21.2 °F 64% 29.86 in 10.0 mi NNW 6.9 mph - N/A   Clear
8:15 PM 30.2 °F 24.3 °F 21.2 °F 69% 29.87 in 10.0 mi NNW 5.8 mph - N/A   Clear
8:35 PM 30.2 °F 25.4 °F 21.2 °F 69% 29.88 in 10.0 mi WNW 4.6 mph - N/A   Clear
8:55 PM 30.2 °F 26.7 °F 21.2 °F 69% 29.89 in 10.0 mi WNW 3.5 mph - N/A   Scattered Clouds
9:15 PM 30.2 °F 25.4 °F 21.2 °F 69% 29.90 in 10.0 mi West 4.6 mph - N/A   Overcast
9:35 PM 30.2 °F 26.7 °F 21.2 °F 69% 29.91 in 10.0 mi NW 3.5 mph - N/A   Overcast
9:55 PM 32.0 °F 27.5 °F 21.2 °F 64% 29.92 in 10.0 mi NW 4.6 mph - N/A   Overcast
10:15 PM 30.2 °F - 21.2 °F 69% 29.93 in 10.0 mi Calm Calm - N/A   Mostly Cloudy
10:35 PM 30.2 °F - 21.2 °F 69% 29.94 in 10.0 mi Calm Calm - N/A   Scattered Clouds
10:55 PM 26.6 °F 21.2 °F 21.2 °F 80% 29.94 in 10.0 mi NNW 4.6 mph - N/A   Clear
11:15 PM 28.4 °F 22.2 °F 19.4 °F 69% 29.95 in 10.0 mi North 5.8 mph - N/A   Clear
11:35 PM 28.4 °F 23.3 °F 19.4 °F 69% 29.96 in 10.0 mi North 4.6 mph - N/A   Clear
11:55 PM 24.8 °F 17.9 °F 17.6 °F 74% 29.96 in 10.0 mi NNE 5.8 mph - N/A   Clear